Theta_e
321 320 320 317 318 317 319 318 318 319 319 318 318 316 314 314 309 307 306 307 306 308 309 306 308 311 313 315 314 314 313 313 313 317 314 311 309 304 303 302 302 302 302 302 301 301 301 302 303 306 307 306 306 306 305 305 304 305 306 306 308 309 310 310 310 312 314 317 317 315 315 315 315 316
321 320 319 320 319 321 320 319 320 319 320 318 318 318 317 316 313 310 308 308 311 309 311 310 307 309 310 311 313 313 311 313 310 316 314 311 308 302 302 301 301 301 301 301 301 301 300 301 303 305 305 305 304 304 304 303 303 304 304 304 306 308 311 310 310 311 313 315 315 316 316 316 316 317
322 321 320 320 319 321 321 321 320 321 319 318 317 317 319 319 319 315 313 309 312 314 310 309 309 308 309 309 311 309 309 308 310 313 315 311 306 306 304 301 301 302 300 300 300 301 301 301 301 302 304 303 304 304 303 303 304 302 302 303 304 306 309 309 308 310 312 314 314 315 314 313 315 316
321 320 319 319 319 320 319 321 321 320 321 321 318 319 319 318 319 317 314 312 310 313 312 310 309 309 310 310 310 311 307 305 309 312 311 314 306 307 305 303 302 301 300 300 300 301 301 301 300 301 302 302 302 303 302 302 303 302 301 301 302 303 306 307 307 308 309 311 312 312 311 311 312 313
319 318 318 318 319 320 319 319 319 319 318 319 319 319 317 317 318 318 316 312 311 313 315 312 308 311 311 309 310 309 311 311 310 308 311 312 313 312 309 305 302 301 300 301 300 301 300 300 300 299 299 300 300 302 301 301 301 300 300 300 301 302 304 305 304 305 307 310 310 309 309 310 311 312
318 318 316 316 317 318 316 318 315 315 316 316 316 316 318 317 316 319 315 312 311 311 313 310 310 311 312 308 311 312 312 311 311 309 309 310 310 309 311 307 305 301 302 301 299 301 300 300 300 299 299 299 300 301 301 300 300 299 299 298 300 301 301 301 301 303 305 307 307 307 308 309 310 311
316 316 316 315 317 318 317 317 318 317 316 315 314 316 316 316 316 315 316 314 312 311 310 312 310 311 312 312 309 309 311 311 311 310 309 309 310 311 311 311 306 301 301 299 300 300 300 300 300 300 299 299 300 300 300 300 300 299 299 298 299 299 300 299 300 301 303 306 306 306 307 308 310 311
314 316 316 316 316 316 317 316 316 315 317 316 316 316 317 316 315 317 317 316 315 312 310 311 309 310 311 312 311 311 311 310 311 311 311 311 311 311 312 313 312 303 301 300 301 302 302 301 301 300 299 300 301 300 300 300 300 299 298 298 298 298 298 298 299 301 303 304 305 306 307 308 310 312
317 317 318 317 317 317 318 317 317 316 316 316 317 316 315 314 316 318 317 317 315 314 312 312 313 314 313 312 313 312 311 312 311 311 311 311 311 311 312 313 314 307 300 302 302 301 301 302 301 300 301 301 301 300 300 300 300 300 300 298 298 298 298 299 300 302 302 303 304 305 305 306 309 312
320 320 319 320 319 319 319 319 319 319 317 316 317 317 316 315 316 317 317 317 317 315 313 314 313 314 312 313 313 314 313 311 310 311 312 313 313 313 313 314 313 314 313 313 310 305 302 301 299 302 302 300 299 299 299 300 301 300 299 297 297 298 298 299 300 301 300 302 303 303 304 304 308 310
322 322 321 322 321 320 320 320 319 319 319 318 318 317 317 315 315 315 316 316 316 315 314 314 314 313 314 314 311 312 313 312 311 310 310 310 312 313 313 312 312 313 313 309 303 305 304 304 305 302 300 300 300 300 300 300 299 299 297 295 295 296 297 298 298 301 302 302 302 300 299 300 303 305
322 323 323 322 322 321 321 320 320 320 319 319 318 318 318 317 315 315 315 315 314 314 315 313 312 312 312 312 313 313 312 311 311 311 310 309 310 311 312 312 311 312 311 312 312 306 305 304 302 299 300 300 300 300 300 300 300 298 297 295 296 297 297 298 299 300 300 301 300 299 298 300 301 302
324 325 325 324 321 328 318 307 311 311 313 324 319 319 318 318 316 315 314 314 313 314 313 312 313 311 310 311 312 310 310 310 309 311 312 311 310 310 309 310 311 310 309 310 309 308 310 307 308 308 308 310 303 302 300 303 302 299 296 296 297 297 297 298 298 299 299 298 298 298 298 299 299 299
323 322 324 324 318 311 311 309 304 303 302 304 314 319 319 318 317 315 314 313 313 313 312 311 310 310 309 310 311 311 311 312 312 310 310 308 309 309 308 309 311 310 309 309 307 308 309 308 307 307 307 308 308 310 310 309 304 299 296 297 297 297 297 297 298 297 297 297 297 297 297 297 297 298
321 321 322 322 319 317 313 317 302 301 301 301 299 298 300 304 318 317 315 313 314 312 312 311 310 309 309 310 312 311 310 312 310 309 309 308 308 306 304 302 307 311 310 308 306 306 309 308 305 306 306 307 308 308 309 298 299 298 298 297 297 297 297 297 297 297 297 297 297 297 296 297 297 298
317 317 319 321 321 323 329 324 319 308 299 298 297 296 295 293 291 294 311 313 313 313 312 311 311 310 309 309 311 310 311 311 310 309 308 307 306 306 304 304 303 308 310 306 304 304 307 308 306 305 306 306 308 307 304 298 300 298 298 298 297 297 297 297 298 297 298 297 297 296 297 297 297 297
317 318 319 320 324 319 314 318 321 321 311 296 293 294 293 293 292 291 291 296 309 310 311 311 310 310 311 310 311 312 311 311 308 306 305 307 306 306 304 304 304 306 308 305 303 302 305 306 305 304 306 306 307 306 302 300 300 299 298 298 297 297 297 298 298 298 297 298 298 297 297 297 297 297
319 318 315 316 317 321 322 322 321 319 317 312 308 308 309 309 301 293 293 293 294 300 307 308 309 313 313 310 312 312 311 307 305 305 305 307 305 304 303 305 305 307 308 305 304 302 303 306 305 303 304 306 306 306 303 298 299 298 299 298 297 297 297 297 297 297 297 297 296 297 297 297 297 296
317 319 319 317 318 320 318 314 308 320 320 316 314 313 312 311 309 309 310 311 311 310 309 310 311 312 312 312 311 311 310 309 308 308 306 306 305 305 306 305 306 306 308 307 304 298 301 304 303 303 304 305 305 306 302 299 298 299 298 297 297 296 296 296 296 297 296 296 296 296 296 296 296 296
318 318 319 318 318 318 313 299 291 298 315 317 314 312 312 310 308 303 295 292 295 305 309 309 309 308 303 297 305 302 303 305 305 304 304 304 303 301 300 300 303 302 305 305 302 300 300 303 301 301 304 304 303 305 305 301 300 298 298 297 296 296 296 295 295 295 295 296 296 296 295 295 295 295
319 319 318 318 316 313 309 295 292 294 295 316 313 312 312 311 309 305 301 294 291 291 290 290 289 290 290 291 290 290 291 298 299 299 298 299 301 299 297 298 298 299 302 303 303 300 298 302 302 301 302 302 302 302 303 304 301 298 297 297 296 296 296 295 295 295 295 295 295 295 295 295 295 295
313 308 298 310 315 312 308 291 292 290 304 315 314 313 310 309 307 306 304 303 300 291 291 290 290 291 291 289 289 291 290 289 294 299 296 299 298 297 297 296 298 299 300 301 304 301 299 301 302 300 301 301 302 302 303 304 304 296 297 295 296 296 296 295 294 295 296 295 295 295 295 295 295 299
311 310 302 295 303 306 300 289 291 289 300 314 313 312 311 308 308 308 307 307 305 304 304 302 302 300 295 299 301 300 290 292 295 301 300 300 299 297 298 298 297 296 298 302 305 298 298 299 300 298 296 295 299 301 302 302 303 304 305 304 302 296 296 295 294 294 295 296 296 295 295 295 295 299
310 309 305 298 290 290 289 290 290 291 292 313 314 312 310 309 306 310 309 307 307 308 307 307 307 307 307 305 305 307 300 298 300 301 303 302 301 299 298 298 297 295 296 301 302 298 298 299 296 299 297 294 292 297 300 300 302 302 303 302 302 298 296 295 295 294 294 295 295 295 295 295 296 299
308 307 306 303 291 289 290 290 290 292 292 296 309 307 305 302 304 302 308 304 294 303 304 305 305 305 305 305 305 305 304 302 303 302 302 303 302 300 298 296 296 296 297 301 297 299 296 297 296 297 296 296 296 296 297 299 300 300 301 300 300 301 302 302 300 302 297 294 294 294 294 295 295 297
306 306 304 301 293 289 290 290 291 291 292 294 301 298 289 288 289 303 303 305 305 305 304 303 302 303 302 302 302 302 302 302 302 302 303 302 302 301 300 298 296 294 296 300 296 299 296 295 296 295 295 294 295 295 294 295 298 299 300 301 300 300 301 300 299 300 300 301 301 298 299 296 295 295
306 305 302 296 290 290 290 290 291 291 291 293 295 288 289 289 286 293 303 303 303 301 302 302 301 300 301 301 301 301 301 302 302 301 302 301 301 300 300 300 300 298 298 300 300 299 297 295 297 295 293 294 293 293 293 293 294 297 297 298 299 300 299 298 298 298 298 298 299 296 296 296 294 294
306 302 299 295 289 289 289 289 289 290 292 294 288 289 288 288 291 301 302 301 302 301 299 299 299 300 300 300 299 299 301 300 301 300 300 300 300 300 300 300 299 299 299 299 298 298 297 295 295 295 295 293 291 290 290 293 293 294 294 296 297 297 298 298 297 297 297 298 298 298 297 297 299 299
306 295 290 288 289 288 288 288 289 289 288 287 287 289 288 291 301 303 302 301 301 299 298 298 300 299 299 299 300 301 301 301 301 300 300 301 300 299 299 299 299 299 299 298 298 297 296 295 294 295 294 293 291 291 291 290 292 292 293 293 292 295 296 297 297 296 296 296 296 296 296 296 297 298
288 289 289 288 288 288 291 297 298 297 295 289 289 288 289 301 302 301 300 300 299 298 298 297 297 298 299 299 301 301 300 299 298 298 297 297 297 297 296 295 295 297 298 298 297 296 296 296 295 294 293 293 292 291 292 291 291 292 293 292 293 294 295 296 296 296 295 294 294 295 296 296 296 296
292 291 293 293 292 292 291 293 293 293 291 294 294 297 299 302 300 299 299 297 297 296 297 297 297 298 299 300 299 298 298 297 297 298 296 295 294 295 294 293 292 293 295 297 297 297 296 296 295 294 292 292 292 292 292 292 291 291 292 293 293 290 293 295 294 294 294 294 294 295 296 296 296 297
295 295 291 292 297 297 298 297 297 297 298 299 298 301 301 299 297 295 292 293 298 299 299 297 297 296 298 297 297 297 296 296 296 297 295 294 294 293 293 291 291 292 293 294 295 296 294 296 295 295 294 293 291 292 293 292 291 292 292 293 293 294 294 293 293 294 295 295 293 293 294 295 295 296
297 295 296 296 296 296 294 295 296 300 299 297 299 299 301 301 300 300 298 297 297 297 297 295 295 292 296 296 297 296 296 296 295 296 295 295 293 293 293 291 291 290 290 291 293 294 295 295 297 295 295 294 294 293 291 290 291 292 292 292 292 292 293 294 293 293 295 293 292 292 293 295 296 296
295 294 295 296 295 294 296 297 297 295 297 294 295 294 292 295 298 295 295 297 297 294 293 294 293 294 293 294 295 295 294 294 294 294 291 292 293 291 290 290 290 291 291 291 291 292 293 294 295 295 295 295 296 295 293 291 290 291 292 292 292 291 293 293 293 294 294 293 293 292 292 293 295 297
295 295 295 295 296 296 296 295 296 296 296 295 295 295 295 296 295 292 295 295 292 292 293 293 294 293 293 292 293 291 291 292 291 292 292 292 292 291 290 289 290 290 290 290 290 292 292 292 292 292 292 292 292 294 296 295 292 291 292 292 293 291 291 292 292 293 294 293 293 291 290 292 294 296
295 296 296 295 294 296 294 295 295 296 296 295 295 293 294 294 294 293 293 293 294 293 293 293 292 293 293 293 292 291 291 290 291 291 291 291 290 290 290 290 289 290 290 290 290 292 292 291 291 289 287 287 287 287 289 294 294 293 290 289 291 291 291 292 292 293 292 292 292 291 289 289 291 295
296 295 295 294 294 296 295 295 296 295 297 295 295 294 294 293 294 294 295 291 295 292 293 293 293 293 292 292 292 291 291 290 290 290 290 290 290 290 289 289 289 289 290 290 291 291 292 290 290 289 287 286 285 285 287 290 292 294 293 290 290 291 291 291 291 290 291 292 291 291 290 290 290 294
295 296 294 296 297 298 297 296 295 295 295 295 295 295 295 296 297 296 296 295 293 293 293 293 293 292 292 291 291 291 291 291 290 290 289 289 289 288 288 288 288 289 289 290 290 291 291 290 289 289 288 286 285 285 285 289 290 291 293 293 289 289 290 289 289 289 289 292 291 292 293 291 292 294
297 296 296 297 297 299 296 296 295 295 297 295 295 294 293 295 295 293 292 293 294 292 293 293 292 292 291 292 291 291 290 290 289 289 289 289 289 288 288 288 287 288 288 288 290 290 290 290 290 290 289 288 286 286 287 286 287 290 292 291 292 290 289 289 288 289 289 289 290 293 292 294 295 292
298 298 298 298 299 298 297 297 295 296 296 294 293 297 295 292 292 292 292 292 292 291 291 292 291 292 292 292 291 291 291 290 289 289 289 289 288 288 287 288 287 287 287 287 287 288 289 289 290 290 291 291 290 290 289 289 289 290 291 291 291 291 290 290 289 289 288 290 291 290 290 291 291 293
297 298 299 299 299 299 297 297 297 294 297 297 298 293 293 293 291 291 291 292 291 292 292 293 291 291 292 292 291 291 290 290 289 289 289 288 288 288 287 286 287 288 287 287 287 288 288 290 291 288 289 290 290 289 288 287 286 288 289 291 291 290 290 291 291 291 289 291 290 289 289 289 290 291
298 298 298 299 299 298 298 298 299 296 293 296 295 294 292 291 291 289 290 289 290 290 292 292 292 292 292 292 291 291 290 289 289 288 288 288 287 287 287 287 287 287 287 286 287 287 290 292 291 291 290 290 289 286 285 285 286 287 289 291 290 289 289 288 288 289 290 289 288 287 288 289 290 289
297 298 298 297 299 298 299 298 298 296 296 296 295 293 292 292 292 291 292 293 292 292 292 292 292 292 292 292 292 291 290 289 289 288 287 287 287 287 287 287 288 288 288 288 288 289 289 290 290 289 290 289 289 288 286 286 287 288 289 289 289 289 289 288 288 287 287 287 286 286 286 286 286 285
299 298 297 298 297 298 298 297 297 296 294 293 293 292 292 291 291 291 292 292 292 292 291 292 292 292 291 291 291 291 290 289 289 288 287 288 288 288 288 288 288 288 288 288 288 288 289 289 289 289 288 288 289 288 287 287 287 288 289 289 289 289 289 289 288 286 287 286 286 286 286 287 286 286
296 297 295 296 296 295 296 294 293 294 294 294 293 292 291 291 291 291 292 292 292 291 291 292 291 291 291 290 290 289 289 289 289 289 289 289 288 288 288 288 288 288 288 288 288 288 288 288 289 289 289 289 289 288 288 288 288 288 289 289 288 289 289 288 288 287 287 286 286 285 285 286 286 286
Wind_Speed
5 5 5 5 4 5 5 5 3 4 2 4 3 3 3 2 4 4 4 3 3 3 4 3 4 4 4 3 3 2 5 5 4 3 5 5 5 4 6 8 9 9 10 10 9 9 9 9 9 9 10 10 9 10 9 9 10 9 9 11 10 9 9 9 9 8 9 10 10 10 10 10 10 10
5 4 4 5 6 6 5 5 4 3 3 2 1 3 1 3 2 4 5 5 2 3 1 4 4 3 4 3 2 2 3 5 8 4 5 5 5 4 6 8 8 9 9 9 9 9 8 9 9 9 9 9 9 9 9 9 10 10 9 8 10 10 10 9 9 9 9 9 10 10 9 10 10 11
5 5 6 5 5 4 5 4 4 3 2 2 1 3 4 4 6 4 4 4 3 4 3 3 4 3 3 4 3 2 3 3 4 1 1 6 9 8 4 7 9 8 8 8 8 8 8 7 8 8 8 9 9 9 9 9 9 9 10 8 11 11 10 10 10 11 11 11 12 12 13 12 12 12
5 5 5 5 5 4 4 4 3 3 4 3 4 3 3 3 4 2 1 2 5 3 3 2 2 3 1 1 2 3 4 4 7 4 2 7 11 6 5 6 9 8 7 6 6 6 6 6 6 7 7 7 8 8 8 8 7 7 8 9 10 10 10 10 9 10 10 11 11 12 12 13 13 13
5 5 6 5 4 2 3 3 2 2 3 2 2 3 2 3 1 2 3 3 4 3 1 1 2 2 3 1 2 3 1 1 3 2 2 4 6 8 7 6 8 8 7 4 3 4 4 5 5 5 5 6 6 6 6 7 7 8 8 10 12 12 11 11 11 11 11 11 11 12 12 12 12 13
3 3 4 5 3 1 1 2 5 5 4 3 4 3 1 2 2 3 1 3 3 3 1 1 1 2 2 3 2 2 2 1 3 3 0 2 3 3 2 7 5 8 8 5 0 3 4 5 5 5 4 4 6 5 5 6 6 6 7 8 10 11 12 11 12 12 13 12 12 12 13 13 13 12
5 3 3 3 3 1 0 2 3 2 2 5 2 2 2 3 1 2 4 2 4 2 3 1 3 1 2 5 1 3 2 2 4 6 1 4 3 2 1 3 6 7 9 7 4 5 6 5 6 7 6 5 5 5 5 5 5 5 5 7 8 10 11 11 12 12 12 12 13 13 12 12 13 13
5 4 3 3 3 2 2 3 1 2 0 4 4 2 3 1 1 2 1 3 4 3 1 1 4 5 0 3 3 2 4 3 4 3 5 3 3 2 4 7 3 7 9 8 6 7 8 8 8 8 8 6 6 6 6 6 6 5 4 5 7 9 11 11 11 11 12 12 13 13 13 13 13 13
4 5 3 5 5 3 3 2 2 3 1 5 3 3 3 4 4 2 2 3 2 3 2 2 2 5 3 1 3 5 7 5 4 6 6 3 3 5 4 4 6 8 9 8 8 10 13 11 10 11 10 8 7 7 7 7 6 4 3 5 6 8 9 11 12 12 12 12 12 12 12 12 13 13
4 3 5 4 5 5 4 4 2 1 3 3 2 3 3 3 7 2 2 2 3 4 3 2 3 3 5 7 3 4 3 5 7 7 7 8 10 7 6 6 6 6 3 3 4 9 12 14 13 12 12 12 11 9 8 9 8 4 0 3 5 7 7 8 10 11 10 11 11 12 12 12 12 12
5 5 5 5 5 6 5 4 4 4 3 2 3 4 2 5 3 2 3 4 3 3 3 3 3 4 3 3 4 7 2 5 6 8 5 6 8 8 7 7 7 8 5 6 10 10 10 9 7 10 13 15 13 9 8 11 10 5 3 2 4 5 6 7 8 10 11 11 11 10 10 10 12 12
5 5 6 6 5 6 6 6 6 5 6 4 5 4 4 4 3 3 3 4 5 4 4 4 4 5 4 3 4 4 5 6 7 6 6 8 8 8 7 8 9 8 7 6 6 6 9 10 12 15 14 15 10 11 11 13 8 6 4 3 3 4 5 6 7 9 10 11 11 10 10 10 12 12
2 4 6 6 6 1 6 9 7 6 5 1 5 5 5 5 4 4 4 4 5 5 5 5 5 5 5 5 4 5 5 6 6 7 8 8 9 10 10 9 9 8 8 8 7 7 8 10 10 10 10 3 11 11 15 8 9 9 6 3 4 5 6 6 8 10 10 10 11 11 11 11 11 10
2 4 3 2 8 5 5 5 3 2 2 3 3 3 3 4 6 5 5 5 7 7 6 7 6 5 6 6 6 4 5 6 5 6 7 9 9 10 9 8 7 9 9 8 8 9 9 9 11 10 8 4 9 5 7 4 6 7 7 2 4 6 7 7 8 9 8 9 10 10 11 11 11 10
3 4 5 3 3 6 3 4 4 4 3 3 2 5 3 3 3 5 7 7 7 7 8 8 6 5 7 5 5 6 6 6 5 5 6 8 9 10 11 10 8 7 9 10 10 11 10 10 11 9 9 8 9 8 4 9 7 5 1 3 4 6 7 8 8 9 9 8 9 8 9 10 10 11
3 4 3 7 9 8 4 3 8 6 5 2 3 4 5 5 6 6 2 2 3 5 6 6 6 8 8 6 3 6 5 4 3 5 7 8 9 10 10 10 11 9 9 11 12 12 10 9 8 9 9 8 7 8 3 9 6 4 4 4 5 6 6 7 8 9 8 7 6 7 8 9 8 9
5 2 5 5 3 5 2 3 6 7 6 6 7 7 6 7 6 6 8 6 2 3 5 4 5 4 5 5 5 7 4 3 5 6 7 7 8 8 10 10 11 12 11 12 11 11 9 9 9 9 9 9 8 9 7 9 6 8 9 8 7 5 5 6 8 9 9 8 7 7 9 9 9 10
1 6 8 7 5 4 3 1 1 2 8 6 5 5 5 5 5 5 7 5 6 2 2 4 4 5 5 3 4 3 3 4 6 6 7 7 8 9 10 12 12 11 9 10 10 11 10 8 9 10 9 9 9 9 6 9 11 12 11 10 8 5 5 7 8 9 9 9 8 7 7 8 9 10
7 5 5 5 4 3 2 3 4 3 5 5 4 5 5 5 4 2 2 3 1 2 2 2 2 2 3 3 3 2 2 2 3 5 7 8 9 10 11 11 11 10 8 9 9 12 10 8 10 10 10 9 10 9 11 8 12 12 12 10 8 7 8 8 9 9 9 9 9 9 9 9 9 9
6 6 6 6 4 3 3 4 5 5 3 5 4 6 6 6 6 5 3 3 7 8 6 6 5 5 5 6 6 5 4 5 5 6 7 8 9 10 11 10 9 10 9 10 10 10 10 9 11 11 9 10 10 10 10 14 8 13 12 9 9 10 11 12 12 11 10 10 10 10 10 9 9 10
6 4 3 1 6 4 4 4 5 4 9 3 5 5 6 5 4 5 4 6 8 9 10 10 9 8 7 7 6 5 5 3 4 5 7 8 8 9 11 10 10 10 8 8 9 11 12 9 10 11 10 10 11 11 12 11 9 11 11 12 14 15 15 15 14 13 13 13 14 12 12 11 11 11
7 6 9 8 5 6 5 4 6 6 7 3 5 5 5 5 5 5 5 4 4 6 7 7 6 6 6 4 2 2 3 2 2 5 7 8 8 9 9 10 9 9 9 10 9 7 9 10 10 11 10 10 9 10 9 10 2 11 11 16 18 17 17 17 16 15 14 15 15 14 14 13 13 9
8 7 9 12 10 8 6 6 7 8 8 3 5 5 5 5 6 6 6 5 5 4 4 4 3 4 4 4 5 6 9 7 6 5 6 7 8 9 9 9 10 10 7 6 11 8 9 10 10 11 11 11 9 9 10 8 9 7 8 9 12 18 19 19 17 15 16 15 15 14 14 14 11 8
8 8 7 8 9 9 8 8 9 10 11 6 4 4 5 4 1 8 4 5 4 0 1 2 3 4 4 6 6 5 8 8 11 9 7 5 6 8 10 10 9 10 8 7 7 8 10 11 12 10 12 13 10 9 10 10 10 11 11 12 14 6 15 16 10 14 15 14 14 14 15 14 11 8
9 8 7 6 6 8 10 10 10 11 12 12 8 7 7 5 5 4 4 4 2 3 4 4 5 5 5 6 6 7 8 9 9 8 8 8 8 10 11 11 11 11 10 7 7 10 12 11 12 11 11 11 12 13 11 11 10 10 11 13 12 12 11 5 7 8 11 16 15 14 15 14 13 8
9 9 7 7 5 8 10 10 11 12 12 12 8 6 6 8 10 5 3 2 4 3 3 4 4 4 5 6 6 6 7 8 8 8 8 9 9 8 9 12 12 12 12 11 13 11 12 12 12 13 12 12 13 12 13 12 11 11 11 11 11 12 10 10 10 10 11 11 11 9 7 8 13 14
10 9 9 8 9 10 11 11 11 11 11 9 6 5 7 6 5 4 3 1 3 4 3 4 5 6 6 6 5 5 7 6 7 7 7 8 9 9 10 12 12 11 11 12 12 12 12 12 11 12 12 11 13 12 11 12 10 10 11 10 11 11 11 11 11 11 10 11 11 12 13 13 11 15
10 10 9 9 11 11 11 11 10 10 9 7 5 2 1 3 4 3 2 3 2 2 4 4 5 5 4 5 5 5 5 6 7 7 7 9 10 10 10 11 11 11 12 12 12 11 11 11 11 10 11 11 11 11 12 10 11 11 11 11 11 10 10 10 10 11 10 10 9 10 10 10 8 4
9 13 16 15 13 12 13 14 12 10 8 6 3 2 2 4 4 3 2 2 2 4 4 4 4 5 5 4 5 5 4 6 8 10 8 7 9 10 10 10 10 10 8 9 10 10 10 11 11 11 11 11 11 11 11 12 11 11 11 11 10 10 10 10 11 10 10 10 10 10 10 10 10 9
20 18 15 14 13 12 12 9 7 6 5 6 6 5 4 5 3 1 2 1 2 3 3 4 4 4 4 5 5 7 7 9 9 8 9 8 9 9 9 10 10 9 10 9 10 10 10 10 10 10 11 11 10 11 11 12 11 11 11 10 11 11 10 10 9 9 8 8 10 10 10 10 10 10
11 12 11 8 7 7 4 7 10 8 6 5 3 4 5 2 1 1 2 2 3 2 3 3 4 4 5 6 6 6 6 7 8 8 9 9 9 9 9 10 10 10 9 10 9 9 9 10 10 10 10 11 10 10 11 10 12 12 11 11 11 11 10 10 10 10 9 9 9 10 9 10 9 9
10 9 8 8 6 7 7 7 5 6 6 6 5 4 2 2 3 3 2 2 3 1 2 3 4 5 5 6 6 6 6 7 8 8 8 9 9 8 9 9 9 9 9 9 9 9 7 8 9 8 8 8 11 11 10 11 12 12 12 11 11 11 10 10 10 10 9 8 9 9 9 9 9 8
8 7 8 5 7 6 5 5 5 7 6 3 3 1 2 3 4 5 3 1 1 3 4 4 4 3 5 6 6 7 8 8 8 8 8 9 9 9 8 9 9 9 10 9 9 9 9 9 8 9 10 10 11 12 11 12 12 11 11 10 10 10 9 9 9 9 8 9 10 9 9 8 8 9
8 6 5 5 5 5 5 5 4 4 3 3 3 3 1 2 1 3 1 1 2 3 2 2 2 3 3 4 7 7 8 8 8 9 9 9 8 8 7 8 9 9 9 9 9 9 8 8 8 8 8 8 9 11 11 12 13 12 11 10 10 11 9 9 8 8 8 7 7 7 8 8 9 8
6 6 6 6 5 5 5 4 4 4 3 3 3 3 2 1 1 1 1 2 1 1 1 2 2 3 3 4 4 6 7 9 9 9 8 8 8 8 8 8 9 9 9 9 9 9 8 9 9 9 8 9 9 9 10 10 11 11 11 11 10 10 10 8 8 8 7 7 6 7 6 7 8 8
7 6 6 6 5 4 4 3 4 3 2 2 1 2 2 2 2 0 0 3 2 1 1 2 3 3 4 4 5 6 7 6 7 9 7 6 7 7 8 8 9 9 9 9 9 9 8 8 8 9 9 8 8 10 8 8 9 9 9 7 9 9 8 9 9 8 7 7 7 7 7 7 7 8
6 6 5 5 4 5 4 4 3 3 4 2 2 1 0 0 1 0 4 1 3 0 1 2 3 3 3 4 5 5 6 6 7 7 7 7 6 7 7 7 7 9 9 9 9 8 8 8 7 8 8 9 9 10 10 5 6 6 7 8 7 8 9 9 8 7 7 7 8 7 6 4 4 8
4 4 4 5 6 6 5 4 3 3 3 3 2 1 2 1 1 2 0 1 1 1 2 2 3 3 3 4 5 6 6 6 7 7 7 7 7 7 7 8 8 8 9 9 8 8 8 8 8 8 7 8 10 10 11 7 6 3 1 4 6 5 4 6 8 8 7 8 8 8 6 5 6 7
4 4 4 4 6 6 4 3 3 3 4 3 2 1 1 1 1 0 0 0 1 2 2 2 2 3 3 4 5 6 6 7 7 7 7 7 7 8 8 7 8 9 9 9 9 9 8 9 8 8 8 8 8 7 6 7 10 9 8 8 8 7 7 6 7 7 7 7 6 6 5 5 8 1
5 7 7 6 6 6 5 5 3 4 2 3 2 2 2 1 0 1 0 0 1 1 2 2 2 3 3 4 4 5 6 5 7 7 7 8 7 5 6 7 8 9 9 9 9 8 8 8 7 6 6 6 5 5 4 7 9 9 9 10 13 10 7 6 7 7 7 6 7 6 7 4 6 0
8 7 6 5 6 6 6 5 5 3 3 4 3 4 2 0 0 0 0 1 0 2 2 2 2 3 3 3 4 5 6 7 7 7 7 7 6 6 7 6 8 8 8 9 8 8 10 9 8 9 10 7 5 3 4 6 8 7 6 4 4 9 12 9 6 6 6 7 8 8 7 7 6 5
7 7 6 6 6 6 5 5 5 4 2 1 0 2 1 1 1 2 3 4 3 3 3 2 3 3 3 4 4 5 6 7 7 7 7 8 8 8 7 8 8 7 8 9 10 10 10 9 8 9 6 5 4 4 6 7 7 7 5 4 1 4 6 4 6 5 3 3 4 5 6 6 4 5
7 7 6 6 6 6 6 5 3 3 1 1 1 0 1 2 2 3 1 1 1 1 2 3 3 3 3 4 4 5 6 6 6 7 7 7 8 9 9 8 7 6 6 9 8 8 8 7 7 6 6 5 5 5 8 8 7 7 6 5 1 2 1 4 8 9 10 10 7 3 3 4 4 4
7 7 6 6 4 5 4 3 3 3 1 1 1 3 2 1 1 0 0 1 1 2 3 3 3 3 4 5 5 6 5 6 6 7 6 6 5 6 8 8 7 6 5 6 7 6 7 7 6 6 7 7 5 6 7 7 7 6 6 4 3 2 1 2 2 3 5 8 12 10 7 5 5 4
5 6 4 4 3 3 3 2 3 1 1 1 2 0 0 1 0 0 1 0 2 2 2 3 3 4 5 4 5 6 6 6 7 6 5 6 7 7 7 7 7 7 7 7 7 6 5 6 7 6 6 6 5 6 6 6 7 6 6 4 3 2 2 2 2 2 3 3 8 12 8 7 9 10
Wind_Direction
74 70 73 90 94 65 52 50 60 48 57 119 158 177 184 192 121 169 130 105 107 78 6 85 92 65 73 68 63 48 45 75 297 115 96 92 92 69 70 60 51 43 39 36 31 29 26 26 23 28 26 27 24 25 23 23 22 19 14 15 9 8 12 11 4 358 353 344 328 313 304 297 295 287
84 81 74 66 65 53 67 70 66 63 58 105 143 290 106 326 268 177 138 117 74 104 35 31 90 109 113 140 129 134 111 51 325 94 116 119 106 112 86 79 65 51 42 36 31 26 22 17 13 10 15 16 19 18 16 15 14 8 13 6 9 7 7 9 4 358 353 351 346 334 313 298 292 290
87 84 84 86 82 81 83 96 93 106 123 132 178 57 14 37 4 68 102 140 62 7 79 44 30 54 44 60 68 41 46 79 317 286 187 135 137 147 106 100 86 68 50 36 29 26 20 18 10 4 360 3 3 3 6 9 9 9 7 1 4 1 2 4 2 355 352 349 347 344 338 329 315 302
110 106 96 84 96 118 125 91 75 59 32 20 70 73 82 58 31 30 326 76 108 48 69 88 119 112 26 255 152 143 147 134 239 254 180 126 154 180 138 137 109 95 69 44 25 19 13 8 8 5 359 351 352 354 358 359 1 359 3 1 358 356 356 357 358 354 351 347 346 344 338 328 319 311
128 107 98 100 82 34 80 116 122 118 112 91 46 64 93 81 45 39 81 104 116 110 39 261 67 40 287 168 335 72 48 203 198 221 39 163 203 212 166 140 129 122 107 70 18 1 345 345 344 352 355 344 334 336 343 349 354 360 358 358 353 351 350 351 352 348 347 346 346 344 337 330 324 315
84 111 123 112 103 67 74 190 196 145 193 168 177 158 197 123 69 305 126 130 140 121 211 177 120 127 286 297 105 39 359 357 314 302 264 214 280 359 337 146 141 153 129 128 128 305 298 296 303 304 318 314 318 315 317 326 339 347 354 354 350 347 346 346 344 342 341 341 343 342 337 332 328 321
125 137 124 130 120 150 142 251 349 78 250 247 145 75 44 58 5 41 353 339 120 180 145 223 218 157 56 314 315 164 155 337 322 297 278 321 331 329 284 305 135 172 140 154 184 262 262 264 269 282 279 290 293 293 287 292 309 330 343 352 350 346 343 341 337 335 335 334 336 334 332 329 326 321
146 148 157 147 143 166 180 254 114 231 241 305 59 149 136 187 73 47 323 271 18 77 199 156 272 129 250 230 249 258 223 201 259 292 323 278 278 309 321 332 328 159 169 161 193 238 255 242 245 254 268 273 272 274 284 283 299 318 339 353 350 352 345 338 334 333 332 332 330 330 330 328 323 320
157 157 189 173 170 174 199 197 232 195 236 270 123 221 156 182 136 173 265 282 186 216 257 136 335 339 251 187 352 330 328 292 227 214 210 235 250 289 314 287 301 157 167 169 206 223 235 236 222 237 249 243 240 251 256 276 283 300 335 349 356 354 345 337 336 333 330 329 329 330 331 329 324 319
195 178 193 189 189 190 208 205 226 200 196 254 243 233 256 296 139 194 174 256 314 308 293 265 281 199 318 325 329 306 331 322 323 334 331 336 332 328 289 319 319 306 273 274 215 222 239 233 232 235 231 234 237 235 246 248 254 245 202 338 346 349 339 330 327 326 326 325 329 332 333 331 327 323
191 203 209 212 208 213 214 230 215 219 238 258 287 316 293 293 113 182 232 247 207 218 280 291 270 291 275 212 281 306 306 274 274 293 354 339 323 322 319 315 315 303 281 212 222 253 283 299 268 234 224 232 224 222 230 239 240 205 182 285 324 325 327 326 320 321 323 325 328 329 329 330 329 328
217 215 221 223 231 230 231 227 223 221 225 226 249 236 249 267 278 247 252 266 283 259 260 261 286 278 277 256 218 252 293 300 309 333 351 318 312 314 325 314 307 311 302 301 303 247 232 241 243 247 251 245 221 214 234 242 216 166 198 242 290 308 323 320 315 316 319 320 323 325 324 326 327 327
2 328 332 315 279 12 73 77 63 64 51 268 238 234 250 245 259 250 258 267 248 258 255 260 255 266 266 258 287 322 311 317 342 343 317 307 311 321 320 318 317 313 318 316 313 306 314 310 312 313 305 266 183 214 228 234 164 170 206 232 280 329 323 316 318 316 317 320 323 323 324 323 323 322
331 293 283 316 335 79 99 87 79 52 50 20 10 350 352 287 244 231 252 263 267 272 264 271 283 282 275 286 293 306 307 312 314 296 302 305 312 306 305 314 316 329 315 321 309 306 309 313 307 298 291 294 173 253 238 162 164 166 197 205 359 321 314 312 313 310 314 321 325 326 327 326 324 323
263 245 225 74 22 282 231 215 189 208 225 252 61 90 97 57 335 240 236 243 259 270 284 294 282 272 291 286 287 295 298 281 311 342 325 313 306 307 311 310 314 310 331 318 312 304 307 306 300 303 300 293 291 291 276 131 172 182 29 7 297 296 298 307 302 300 305 317 322 328 330 330 332 331
246 267 286 151 200 227 231 212 189 203 203 120 95 101 98 94 64 45 29 325 298 303 277 276 280 290 280 268 299 307 313 7 5 319 312 300 305 312 311 309 304 315 319 312 305 297 296 297 302 296 289 291 289 284 220 176 203 209 190 220 247 262 291 296 296 291 290 299 310 317 323 327 327 325
220 27 347 292 266 104 98 260 235 194 135 94 97 122 107 79 83 88 69 71 52 336 323 336 314 309 332 333 4 54 39 357 305 301 293 303 308 306 301 301 306 307 311 298 288 290 297 300 291 287 297 302 297 290 239 222 200 185 200 210 216 226 259 279 283 286 285 290 287 298 310 311 316 316
255 144 221 246 229 190 185 185 351 215 129 144 151 162 189 173 113 100 111 116 112 123 302 331 325 29 14 4 53 44 28 320 300 300 296 307 303 300 297 301 295 293 291 281 285 284 285 285 289 292 296 296 298 290 288 177 197 197 202 204 200 216 234 249 259 265 274 274 281 284 284 292 295 300
213 201 216 229 216 166 126 54 5 309 152 149 159 180 177 173 183 137 68 51 16 154 196 239 294 46 48 37 35 13 338 327 307 306 301 296 290 286 282 277 270 271 268 276 282 286 293 290 285 287 293 296 294 293 294 213 206 205 200 198 198 213 226 236 245 255 259 269 277 277 281 284 283 287
187 192 190 192 170 133 115 59 357 334 329 161 170 166 160 131 95 74 58 30 40 39 44 46 50 58 53 51 45 28 2 325 317 304 295 288 284 285 289 291 297 293 296 294 289 288 289 296 294 295 294 295 292 298 294 298 237 205 197 187 199 214 222 224 231 233 241 252 257 265 273 273 275 276
138 80 17 142 134 123 100 52 355 358 342 195 162 147 141 145 148 131 110 73 64 74 82 86 86 86 80 78 82 72 50 23 344 311 295 283 294 299 296 294 293 291 298 301 298 290 288 292 294 298 299 299 301 297 295 287 266 183 179 198 211 218 219 229 230 230 237 238 245 252 251 253 256 267
117 73 42 9 128 118 110 42 15 5 329 210 153 161 162 166 159 143 147 153 104 101 96 96 113 130 138 143 150 151 149 147 281 306 297 309 308 291 287 291 297 301 303 294 302 308 297 305 303 300 300 300 290 290 298 306 312 166 200 210 218 219 222 228 222 228 229 236 241 239 239 246 253 258
130 109 64 46 52 75 75 44 36 17 348 226 174 178 193 178 183 150 160 160 160 170 181 178 183 192 184 204 216 203 187 185 217 253 283 295 291 294 301 306 308 300 298 333 22 327 316 317 315 316 307 296 297 291 286 294 300 287 263 244 224 220 225 223 222 223 229 234 236 239 243 245 246 263
134 122 103 71 60 83 74 62 45 30 19 336 177 214 241 252 107 128 127 56 18 352 283 285 220 269 216 205 215 215 174 205 206 213 223 267 280 288 295 295 294 292 297 308 33 326 306 302 297 304 296 298 301 310 315 311 309 314 315 313 322 267 220 229 229 232 236 235 236 247 250 247 237 255
141 141 123 107 85 88 81 74 64 53 42 35 50 45 60 49 359 346 123 110 105 264 263 250 256 248 246 241 238 247 221 200 205 207 204 211 261 293 293 296 298 291 293 302 16 316 303 304 300 302 299 300 301 299 299 302 303 312 318 314 311 311 320 284 236 244 220 223 232 245 256 257 246 240
147 134 130 126 109 101 94 88 78 68 60 57 74 59 59 37 34 21 350 223 206 236 248 267 275 285 295 298 300 300 306 301 299 304 300 304 314 310 303 297 296 297 299 313 329 304 298 292 294 297 296 295 291 295 300 301 305 304 308 314 314 315 320 321 323 313 311 316 314 321 323 258 243 234
136 117 110 108 122 110 102 92 89 92 94 83 82 90 58 50 7 301 254 327 312 277 292 309 304 298 286 285 296 307 322 337 354 351 335 322 312 298 288 275 265 263 278 290 293 297 297 298 308 305 301 302 301 304 302 304 310 317 311 307 312 318 321 323 318 315 312 309 306 310 307 302 255 238
113 125 128 130 128 110 100 91 82 75 75 97 122 82 103 336 296 263 246 238 250 295 286 279 280 289 313 318 302 312 336 345 329 306 286 263 258 271 291 293 308 314 316 311 302 299 297 295 295 295 299 300 301 300 301 303 300 305 305 310 313 311 311 309 305 308 309 306 306 307 309 306 303 264
111 104 115 123 123 116 110 109 105 100 103 115 115 186 222 277 248 225 285 326 317 299 295 298 318 315 311 311 315 305 301 297 282 252 262 320 329 319 313 316 310 305 294 288 288 287 287 286 287 291 290 289 288 291 293 295 301 298 302 309 302 305 308 307 303 302 303 302 301 305 306 313 315 312
107 116 122 124 124 127 133 142 139 129 135 165 187 222 251 247 243 355 317 315 305 305 320 328 316 310 316 317 331 330 291 268 268 318 342 314 304 309 308 303 298 301 299 296 296 296 293 290 290 291 290 288 287 288 289 294 294 296 300 297 299 300 292 298 304 310 313 308 307 305 302 296 293 294
106 120 131 137 139 120 131 96 96 114 139 166 205 210 216 213 57 69 48 10 330 309 312 322 324 326 325 324 306 295 311 317 324 328 317 310 302 307 305 299 295 295 298 299 295 294 291 290 288 286 286 288 288 284 290 292 289 292 293 295 299 296 302 304 303 301 302 303 305 302 301 298 294 278
128 130 117 124 133 140 142 143 161 164 182 189 189 187 156 134 112 88 77 255 233 247 352 332 330 326 323 308 315 329 316 312 314 316 310 310 307 303 302 296 295 298 299 298 295 291 284 289 290 287 279 281 283 285 286 283 283 287 291 291 292 292 296 299 299 298 299 307 304 300 297 296 297 296
135 141 153 164 163 170 173 173 178 172 172 150 121 132 230 181 180 186 192 212 6 31 355 336 331 318 309 316 314 300 308 318 321 321 314 310 307 307 301 297 297 298 299 303 304 303 302 299 294 289 286 283 281 282 282 282 282 284 288 292 295 296 299 300 300 302 312 303 301 303 301 303 305 296
147 163 174 173 175 173 173 179 169 162 157 162 164 140 72 248 94 42 342 329 34 22 330 320 307 314 329 318 324 326 323 321 320 320 314 303 301 299 297 297 298 298 299 301 305 306 306 301 298 291 284 275 272 270 267 270 277 282 285 290 293 295 298 300 300 303 301 308 316 308 307 309 303 301
158 170 181 182 179 174 171 174 167 153 160 165 176 159 159 168 135 156 265 47 11 335 336 309 312 321 313 307 313 313 313 309 306 304 302 301 300 299 302 299 300 304 304 301 299 300 300 301 303 303 300 297 290 278 266 265 279 279 286 288 294 295 294 295 301 304 313 308 303 300 297 295 295 299
172 182 182 181 174 173 168 162 141 149 153 148 168 156 187 170 128 55 65 64 329 320 313 331 321 310 317 321 315 314 313 311 305 306 310 307 306 303 300 299 299 301 301 300 300 300 303 303 306 304 301 298 293 290 287 243 242 277 287 290 290 290 289 292 297 307 312 305 305 297 291 292 299 302
175 182 181 175 163 166 163 143 149 154 149 155 158 173 127 123 132 167 97 157 228 281 335 303 303 320 317 314 319 316 309 308 308 311 311 311 311 309 304 303 303 304 302 299 301 303 309 311 308 299 296 294 290 287 287 303 278 251 281 294 296 292 297 302 308 304 297 294 287 279 274 285 295 299
173 166 170 169 168 174 154 146 145 146 150 150 157 155 163 191 145 106 286 276 22 335 316 302 319 316 333 334 316 312 310 312 314 313 314 314 313 309 306 306 306 304 302 303 308 309 309 302 297 292 287 288 292 290 296 300 300 280 251 283 285 288 299 299 292 290 297 297 292 286 286 292 301 297
180 178 189 173 172 152 142 142 143 148 144 150 151 168 178 173 117 45 265 357 11 356 321 304 304 340 328 314 318 318 318 319 319 314 312 311 312 310 310 308 302 303 305 303 304 302 300 294 294 295 293 295 292 302 317 308 294 296 291 272 274 283 281 285 284 286 290 294 293 314 314 292 275 236
199 178 189 173 158 144 146 138 142 144 144 133 185 199 135 170 165 191 95 28 35 350 303 289 322 341 317 337 324 319 318 318 317 316 316 313 312 311 305 306 305 302 298 296 295 294 293 296 299 304 314 300 292 289 289 281 279 278 277 268 240 238 261 268 274 283 287 289 304 305 301 306 299 288
185 175 170 160 145 136 135 140 142 133 151 199 163 74 309 93 198 93 39 24 45 335 326 313 338 327 321 331 328 330 325 324 322 320 319 314 311 315 314 305 295 297 301 303 303 301 298 299 305 306 298 289 278 276 277 279 285 295 288 283 246 231 232 238 266 285 297 313 308 304 304 307 310 316
174 163 154 150 143 137 139 154 174 144 208 179 129 157 183 243 157 106 227 204 227 228 255 319 342 334 339 340 336 333 331 326 324 325 325 323 319 313 306 304 306 307 307 303 301 295 294 296 294 291 285 282 272 274 280 282 289 295 303 322 80 56 70 78 70 58 25 345 318 300 299 290 309 303
174 168 149 141 139 149 168 161 155 140 189 174 187 76 235 227 182 193 267 118 171 9 3 338 334 346 340 336 335 338 332 334 338 330 322 316 312 310 307 309 305 299 293 294 290 289 291 294 294 292 290 285 280 270 273 279 285 292 294 303 22 140 101 103 120 111 86 62 36 338 298 300 323 292
173 154 143 141 153 172 147 127 144 149 164 191 152 211 233 235 181 164 353 36 24 20 352 332 340 342 343 344 348 345 340 335 328 314 301 291 289 303 310 312 304 295 284 281 289 291 296 298 298 299 298 292 292 287 277 277 280 283 298 312 318 298 257 165 163 131 109 63 21 358 338 282 261 278
151 140 131 137 151 139 130 156 135 147 152 206 217 189 202 218 34 4 74 38 52 17 329 342 347 350 344 342 339 336 333 323 314 317 318 321 322 317 310 307 309 312 307 308 303 299 300 300 299 295 283 280 274 270 269 268 274 286 288 291 286 308 356 5 344 3 6 7 14 10 22 48 67 70